TimeEST,TemperatureF,Dew PointF,Humidity,Sea Level PressureIn,VisibilityMPH,Wind Direction,Wind SpeedMPH,Gust SpeedMPH,PrecipitationIn,Events,Conditions,WindDirDegrees,DateUTC
12:04 AM,23.0,5.0,46,30.38,10.0,WNW,15.0,23.0,N/A,,Clear,290,2013-02-02 05:04:00
12:25 AM,23.0,5.0,46,30.38,10.0,West,13.8,19.6,N/A,,Clear,280,2013-02-02 05:25:00
12:46 AM,23.0,5.0,46,30.39,10.0,WNW,10.4,-,N/A,,Clear,290,2013-02-02 05:46:00
1:08 AM,23.0,5.0,46,30.39,10.0,WNW,13.8,21.9,N/A,,Clear,290,2013-02-02 06:08:00
1:29 AM,21.2,6.8,54,30.38,10.0,WNW,11.5,17.3,N/A,,Clear,290,2013-02-02 06:29:00
1:50 AM,21.2,6.8,54,30.39,10.0,West,12.7,16.1,N/A,,Clear,280,2013-02-02 06:50:00
3:16 AM,21.2,5.0,50,30.37,10.0,WNW,9.2,-,N/A,,Clear,290,2013-02-02 08:16:00
3:37 AM,21.2,6.8,54,30.37,10.0,NW,6.9,-,N/A,,Clear,310,2013-02-02 08:37:00
3:58 AM,21.2,6.8,54,30.37,10.0,WNW,8.1,-,N/A,,Clear,290,2013-02-02 08:58:00
4:20 AM,21.2,5.0,50,30.37,10.0,WNW,9.2,-,N/A,,Clear,300,2013-02-02 09:20:00
4:41 AM,21.2,5.0,50,30.36,10.0,WNW,9.2,16.1,N/A,,Clear,300,2013-02-02 09:41:00
5:02 AM,21.2,6.8,54,30.36,10.0,WNW,9.2,-,N/A,,Clear,290,2013-02-02 10:02:00
5:24 AM,21.2,6.8,54,30.37,10.0,WNW,8.1,-,N/A,,Clear,300,2013-02-02 10:24:00
5:45 AM,21.2,5.0,50,30.37,10.0,WNW,9.2,-,N/A,,Clear,290,2013-02-02 10:45:00
6:06 AM,21.2,6.8,54,30.37,10.0,WNW,6.9,-,N/A,,Clear,290,2013-02-02 11:06:00
6:28 AM,21.2,6.8,54,30.37,10.0,WNW,9.2,-,N/A,,Clear,290,2013-02-02 11:28:00
6:49 AM,21.2,5.0,50,30.37,10.0,West,5.8,-,N/A,,Clear,280,2013-02-02 11:49:00
7:10 AM,21.2,6.8,54,30.37,10.0,West,5.8,-,N/A,,Clear,280,2013-02-02 12:10:00
7:32 AM,21.2,6.8,54,30.38,10.0,West,5.8,-,N/A,,Clear,280,2013-02-02 12:32:00
7:53 AM,21.2,6.8,54,30.38,10.0,WNW,6.9,-,N/A,,Clear,290,2013-02-02 12:53:00
8:14 AM,21.2,6.8,54,30.38,10.0,West,4.6,-,N/A,,Clear,280,2013-02-02 13:14:00
8:35 AM,23.0,8.6,54,30.38,10.0,West,3.5,-,N/A,,Clear,260,2013-02-02 13:35:00
8:57 AM,24.8,6.8,46,30.37,10.0,Calm,Calm,-,N/A,,Clear,0,2013-02-02 13:57:00
9:18 AM,24.8,5.0,43,30.36,10.0,Calm,Calm,-,N/A,,Clear,0,2013-02-02 14:18:00
9:39 AM,26.6,5.0,40,30.35,10.0,West,3.5,-,N/A,,Clear,260,2013-02-02 14:39:00
10:01 AM,26.6,5.0,40,30.35,10.0,SW,6.9,-,N/A,,Clear,230,2013-02-02 15:01:00
10:22 AM,26.6,5.0,40,30.35,10.0,WSW,8.1,-,N/A,,Clear,250,2013-02-02 15:22:00
10:43 AM,28.4,8.6,43,30.34,10.0,WSW,5.8,-,N/A,,Clear,250,2013-02-02 15:43:00
11:04 AM,28.4,8.6,43,30.33,10.0,SSW,6.9,-,N/A,,Clear,200,2013-02-02 16:04:00
11:26 AM,28.4,5.0,37,30.32,10.0,South,8.1,-,N/A,,Clear,190,2013-02-02 16:26:00
11:47 AM,30.2,8.6,40,30.31,10.0,South,6.9,-,N/A,,Clear,190,2013-02-02 16:47:00
12:08 PM,30.2,6.8,37,30.28,10.0,South,9.2,-,N/A,,Clear,190,2013-02-02 17:08:00
12:29 PM,30.2,8.6,40,30.27,10.0,SSW,9.2,-,N/A,,Clear,200,2013-02-02 17:29:00
12:51 PM,30.2,8.6,40,30.25,10.0,South,11.5,-,N/A,,Clear,180,2013-02-02 17:51:00
1:12 PM,32.0,10.4,41,30.23,10.0,SSE,9.2,-,N/A,,Clear,160,2013-02-02 18:12:00
1:33 PM,32.0,12.2,44,30.22,10.0,South,10.4,-,N/A,,Clear,170,2013-02-02 18:33:00
1:55 PM,32.0,12.2,44,30.21,10.0,SSE,8.1,-,N/A,,Clear,160,2013-02-02 18:55:00
2:16 PM,32.0,12.2,44,30.19,10.0,SSE,9.2,-,N/A,,Clear,160,2013-02-02 19:16:00
2:37 PM,32.0,6.8,35,30.18,10.0,South,8.1,-,N/A,,Clear,190,2013-02-02 19:37:00
2:58 PM,32.0,8.6,38,30.18,10.0,SSW,9.2,-,N/A,,Clear,200,2013-02-02 19:58:00
3:20 PM,32.0,8.6,38,30.17,10.0,SSW,8.1,-,N/A,,Clear,210,2013-02-02 20:20:00
3:41 PM,32.0,10.4,41,30.17,10.0,South,9.2,-,N/A,,Clear,190,2013-02-02 20:41:00
4:02 PM,32.0,10.4,41,30.16,10.0,SSW,4.6,-,N/A,,Clear,200,2013-02-02 21:02:00
4:23 PM,32.0,10.4,41,30.14,10.0,SSE,5.8,-,N/A,,Clear,160,2013-02-02 21:23:00
4:45 PM,32.0,8.6,38,30.14,10.0,SSW,6.9,-,N/A,,Scattered Clouds,200,2013-02-02 21:45:00
5:06 PM,32.0,12.2,44,30.14,10.0,South,6.9,-,N/A,,Scattered Clouds,180,2013-02-02 22:06:00
5:27 PM,32.0,12.2,44,30.12,10.0,SSW,6.9,-,N/A,,Clear,210,2013-02-02 22:27:00
5:49 PM,32.0,12.2,44,30.10,10.0,South,9.2,-,N/A,,Clear,190,2013-02-02 22:49:00
6:10 PM,32.0,14.0,48,30.10,10.0,South,8.1,-,N/A,,Clear,180,2013-02-02 23:10:00
6:31 PM,30.2,19.4,64,30.11,4.0,South,10.4,-,N/A,,Mostly Cloudy,190,2013-02-02 23:31:00
6:52 PM,30.2,26.6,86,30.12,2.0,SSW,6.9,-,N/A,,Overcast,210,2013-02-02 23:52:00
7:14 PM,30.2,28.4,93,30.12,1.0,SSW,4.6,-,N/A,,Overcast,200,2013-02-03 00:14:00
7:35 PM,30.2,28.4,93,30.12,2.0,SSW,4.6,-,N/A,,Overcast,200,2013-02-03 00:35:00
7:56 PM,30.2,28.4,93,30.11,5.0,SSW,6.9,-,N/A,,Overcast,200,2013-02-03 00:56:00
8:18 PM,30.2,26.6,86,30.11,5.0,SSW,6.9,-,N/A,,Overcast,210,2013-02-03 01:18:00
8:39 PM,30.2,28.4,93,30.10,3.0,South,5.8,-,N/A,,Overcast,190,2013-02-03 01:39:00
9:00 PM,30.2,28.4,93,30.09,4.0,SSW,6.9,-,N/A,,Overcast,200,2013-02-03 02:00:00
9:21 PM,30.2,28.4,93,30.08,5.0,SSW,4.6,-,N/A,,Overcast,200,2013-02-03 02:21:00
10:04 PM,30.2,28.4,93,30.06,10.0,South,5.8,-,N/A,,Scattered Clouds,170,2013-02-03 03:04:00
10:25 PM,32.0,28.4,87,30.05,10.0,South,9.2,-,N/A,,Scattered Clouds,170,2013-02-03 03:25:00
10:47 PM,32.0,28.4,87,30.05,10.0,South,4.6,-,N/A,,Scattered Clouds,180,2013-02-03 03:47:00
11:08 PM,32.0,28.4,87,30.04,10.0,South,3.5,-,N/A,,Scattered Clouds,180,2013-02-03 04:08:00
11:29 PM,32.0,28.4,87,30.04,10.0,Calm,Calm,-,N/A,,Clear,0,2013-02-03 04:29:00
11:51 PM,32.0,28.4,87,30.03,10.0,Calm,Calm,-,N/A,,Scattered Clouds,0,2013-02-03 04:51:00